This demonstration page uses our WeatherBlox Daily Observations layout. Learn more.

40.92945, -100.16068

Hourly Observations for March 18, 2015

Temp ( °F °C ) Dew Point ( °F °C ) Humidity (%) Winds ( mph kmh ) Pressure ( in mb ) Visibility ( mi km ) Precip ( " mm )
12:15 am 00:15 Clear 35 1.7 7 -13.7 31 31 E 6 9 30.36 1028 10 16.0934 N/A
12:35 am 00:35 Clear 34 1.2 8 -13.5 33 33 ESE 7 11 30.36 1028 10 16.0934 N/A
12:55 am 00:55 Clear 33 0.7 9 -13 35 35 ESE 6 9 30.36 1028 10 16.0934 N/A
1:15 am 01:15 Clear 32 0.2 10 -12.5 38 38 ESE 5 7 30.36 1028 10 16.0934 N/A
1:35 am 01:35 Clear 32 0.1 10 -12.2 39 39 ESE 5 7 30.33 1027 10 16.0934 N/A
1:55 am 01:55 Clear 32 0.1 11 -11.9 40 40 ESE 6 9 30.33 1027 10 16.0934 N/A
2:15 am 02:15 Clear 33 0.6 10 -12 39 39 ESE 6 9 30.33 1027 10 16.0934 N/A
2:35 am 02:35 Clear 33 0.8 10 -12 38 38 ESE 6 9 30.33 1027 10 16.0934 N/A
2:55 am 02:55 Clear 33 0.5 11 -11.8 40 40 SE 6 9 30.33 1027 10 16.0934 N/A
3:15 am 03:15 Clear 33 0.3 10 -12 40 40 SE 7 11 30.3 1026 10 16.0934 N/A
3:35 am 03:35 Clear 32 0.1 10 -12.1 40 40 SE 8 13 30.3 1026 10 16.0934 N/A
3:55 am 03:55 Clear 32 0 10 -12 40 40 SE 8 13 30.3 1026 10 16.0934 N/A
4:15 am 04:15 Clear 31 -0.3 11 -11.7 42 42 SE 7 11 30.27 1025 10 16.0934 N/A
4:35 am 04:35 Clear 31 -0.5 11 -11.6 43 43 SE 7 11 30.27 1025 10 16.0934 N/A
4:55 am 04:55 Clear 30 -1 11 -11.5 45 45 SE 7 11 30.3 1026 10 16.0934 N/A
5:15 am 05:15 Clear 30 -1 11 -11.4 46 46 SE 7 11 30.3 1026 10 16.0934 N/A
5:35 am 05:35 Clear 30 -1.1 12 -11.2 47 47 SE 6 9 30.3 1026 10 16.0934 N/A
5:55 am 05:55 Clear 30 -1.2 12 -11 48 48 ESE 6 9 30.3 1026 10 16.0934 N/A
6:15 am 06:15 Clear 30 -1.3 12 -11 48 48 ESE 7 11 30.3 1026 10 16.0934 N/A
6:35 am 06:35 Clear 26 -3.3 12 -11 56 56 E 6 9 30.3 1026 10 16.0934 N/A
6:55 am 06:55 Clear 25 -3.7 12 -10.9 58 58 ESE 5 7 30.27 1025 10 16.0934 N/A
7:15 am 07:15 Clear 26 -3.5 13 -10.5 59 59 E 6 9 30.27 1025 10 16.0934 N/A
7:35 am 07:35 Clear 26 -3.1 14 -10.2 58 58 ESE 6 9 30.27 1025 10 16.0934 N/A
7:55 am 07:55 Sunny 28 -2.2 14 -10 56 56 ESE 5 7 30.27 1025 10 16.0934 N/A
8:15 am 08:15 Sunny 29 -1.7 14 -9.9 54 54 ESE 8 13 30.27 1025 10 16.0934 N/A
8:35 am 08:35 Sunny 31 -0.6 15 -9.7 51 51 ESE 9 15 30.24 1024 10 16.0934 N/A
8:55 am 08:55 Sunny 32 0 15 -9.5 49 49 ESE 8 13 30.24 1024 10 16.0934 N/A
9:15 am 09:15 Sunny 33 0.7 16 -9 49 49 ESE 9 15 30.21 1023 10 16.0934 N/A
9:35 am 09:35 Sunny 34 1.1 16 -8.9 48 48 SE 10 17 30.21 1023 10 16.0934 N/A
9:55 am 09:55 Sunny 36 2.4 15 -9.4 42 42 SE 15 24 30.18 1022 10 16.0934 N/A
10:15 am 10:15 Sunny 37 2.6 15 -9.2 42 42 SE 13 20 30.18 1022 10 16.0934 N/A
10:35 am 10:35 Sunny 39 4.1 16 -9.1 38 38 SE 12 19 30.18 1022 10 16.0934 N/A
10:55 am 10:55 Sunny 42 5.3 16 -8.9 35 35 SSE 13 20 30.15 1021 10 16.0934 N/A
11:15 am 11:15 Partly Cloudy 42 5.6 16 -9 34 34 SSE 12 19 30.15 1021 10 16.0934 N/A
11:35 am 11:35 Cloudy 43 6.2 16 -8.7 34 34 SE 13 20 30.15 1021 10 16.0934 N/A
11:55 am 11:55 Cloudy 45 7.1 17 -8.5 32 32 SE 13 20 30.12 1020 10 16.0934 N/A
12:15 pm 12:15 Partly Cloudy 48 8.8 18 -8 30 30 SE 13 20 30.09 1019 10 16.0934 N/A
12:35 pm 12:35 Sunny 50 9.9 19 -7.5 29 29 SSE 14 22 30.09 1019 10 16.0934 N/A
12:55 pm 12:55 Mostly Cloudy 51 10.5 19 -7.3 28 28 S 13 20 30.06 1018 10 16.0934 N/A
1:15 pm 13:15 Cloudy 51 10.3 20 -6.9 29 29 S 13 20 30.06 1018 10 16.0934 N/A
1:35 pm 13:35 Partly Cloudy 52 11.2 19 -7.1 27 27 SSE 12 19 30.03 1017 10 16.0934 N/A
1:55 pm 13:55 Sunny 52 11 19 -7.4 27 27 S 9 15 30.03 1017 10 16.0934 N/A
2:15 pm 14:15 Partly Cloudy 52 11.2 19 -7.4 27 27 SE 12 19 30.03 1017 10 16.0934 N/A
2:35 pm 14:35 Partly Cloudy 54 12.2 20 -6.9 26 26 S 12 19 30.03 1017 10 16.0934 N/A
2:55 pm 14:55 Sunny 54 12.2 20 -6.6 27 27 S 12 19 30 1016 10 16.0934 N/A
3:15 pm 15:15 Sunny 55 13 20 -6.4 26 26 SSE 10 17 30 1016 10 16.0934 N/A
3:35 pm 15:35 Sunny 55 12.8 21 -6.2 26 26 SE 10 17 30 1016 10 16.0934 N/A
3:55 pm 15:55 Sunny 56 13.3 21 -5.9 26 26 SE 9 15 29.94 1014 10 16.0934 N/A
4:15 pm 16:15 Sunny 56 13.6 22 -5.4 27 27 SSE 14 22 29.94 1014 10 16.0934 N/A
4:35 pm 16:35 Sunny 56 13.5 23 -5.2 27 27 S 12 19 29.94 1014 10 16.0934 N/A
4:55 pm 16:55 Sunny 57 13.7 22 -5.3 27 27 SSE 8 13 29.94 1014 10 16.0934 N/A
5:15 pm 17:15 Sunny 57 13.9 23 -5 27 27 S 9 15 29.94 1014 10 16.0934 N/A
5:35 pm 17:35 Sunny 56 13.6 23 -5.2 27 27 SSW 10 17 29.94 1014 10 16.0934 N/A
5:55 pm 17:55 Sunny 55 12.9 23 -5.2 28 28 S 8 13 29.91 1013 10 16.0934 N/A
6:15 pm 18:15 Sunny 55 12.7 23 -5 29 29 SSE 9 15 29.91 1013 10 16.0934 N/A
6:35 pm 18:35 Sunny 55 12.5 23 -4.8 30 30 SSE 8 13 29.94 1014 10 16.0934 N/A
6:55 pm 18:55 Sunny 54 12.2 24 -4.6 31 31 SE 7 11 29.97 1015 10 16.0934 N/A
7:15 pm 19:15 Sunny 54 12 24 -4.5 32 32 SSE 9 15 29.97 1015 10 16.0934 N/A
7:35 pm 19:35 Sunny 53 11.5 24 -4.4 33 33 SSE 10 17 29.97 1015 10 16.0934 N/A
7:55 pm 19:55 Clear 51 10.5 24 -4.4 35 35 SSE 9 15 29.97 1015 10 16.0934 N/A
8:15 pm 20:15 Clear 50 10 25 -4.1 37 37 SE 8 13 29.97 1015 10 16.0934 N/A
8:35 pm 20:35 Clear 49 9.2 26 -3.6 41 41 ESE 13 20 30 1016 10 16.0934 N/A
8:55 pm 20:55 Clear 47 8.3 27 -3 45 45 SE 13 20 30 1016 10 16.0934 N/A
9:15 pm 21:15 Clear 46 7.7 27 -2.9 47 47 SE 13 20 30 1016 10 16.0934 N/A
9:35 pm 21:35 Clear 45 7.2 27 -2.8 49 49 SE 13 20 30.03 1017 10 16.0934 N/A
9:55 pm 21:55 Clear 45 7 27 -2.8 50 50 SE 10 17 30.03 1017 10 16.0934 N/A
10:15 pm 22:15 Clear 44 6.6 27 -2.7 52 52 SE 12 19 30.09 1019 10 16.0934 N/A
10:35 pm 22:35 Clear 43 6.3 27 -2.7 53 53 SE 9 15 30.09 1019 10 16.0934 N/A
10:55 pm 22:55 Clear 43 6 27 -2.6 54 54 SE 9 15 30.09 1019 10 16.0934 N/A
11:15 pm 23:15 Clear 42 5.7 27 -2.6 56 56 SE 8 13 30.09 1019 10 16.0934 N/A
11:35 pm 23:35 Clear 42 5.4 27 -2.6 57 57 SSE 8 13 30.09 1019 10 16.0934 N/A
11:55 pm 23:55 Clear 41 4.8 27 -2.6 59 59 SSE 8 13 30.09 1019 10 16.0934 N/A

Powered by AerisWeather